Le nostre stazioni meteo in Italia

Pubblicità
Il mio iltempo24.it
Bari Palese, Italia (16270): Temperatura & dewpoint: 18.06.2018 22:00:00 - 24.06.2018 22:00:00 (CEST)Bari Palese, Italia (16270): velocità del vento: 18.06.2018 22:00:00 - 24.06.2018 22:00:00 (CEST)Bari Palese, Italia (16270): direzione del vento: 18.06.2018 22:00:00 - 24.06.2018 22:00:00 (CEST)Bari Palese, Italia (16270): reduced air pressure: 18.06.2018 22:00:00 - 24.06.2018 22:00:00 (CEST)Bari Palese, Italia (16270): visibility: 18.06.2018 22:00:00 - 24.06.2018 22:00:00 (CEST)Bari Palese, Italia (16270): precipitazioni: 18.06.2018 22:00:00 - 24.06.2018 22:00:00 (CEST)
Data & Tempo tt [°C] td [°C] ff [km/h] ff [kn] dd ppp [hPa] vv [km] rr [mm]
24.06.2018 22:00:00 - - - - - - - -
24.06.2018 21:00:00 - - - - - - - -
24.06.2018 20:00:00 21,6 9,2 11 6 N 1015,2 18 0,0
24.06.2018 19:00:00 - - - - - - - -
24.06.2018 18:00:00 - - - - - - - -
24.06.2018 17:00:00 22,8 9,6 21 11 N 1015,6 18 -
24.06.2018 16:00:00 - - - - - - - -
24.06.2018 15:00:00 - - - - - - - -
24.06.2018 14:00:00 23,5 9,9 24 13 N 1016,3 18 0,0
24.06.2018 13:00:00 - - - - - - - -
24.06.2018 12:00:00 - - - - - - - -
24.06.2018 11:00:00 23,0 11,8 22 12 N 1016,4 18 -
24.06.2018 10:00:00 - - - - - - - -
24.06.2018 09:00:00 - - - - - - - -
24.06.2018 08:00:00 20,6 11,2 18 10 ONO 1015,7 18 0,0
24.06.2018 07:00:00 - - - - - - - -
24.06.2018 06:00:00 - - - - - - - -
24.06.2018 05:00:00 16,3 9,8 16 9 O 1015,7 18 -
24.06.2018 04:00:00 - - - - - - - -
24.06.2018 03:00:00 - - - - - - - -
24.06.2018 02:00:00 18,2 9,4 16 9 ONO 1016,6 18 0,0
24.06.2018 01:00:00 - - - - - - - -
24.06.2018 00:00:00 - - - - - - - -
23.06.2018 23:00:00 21,1 10,0 21 11 N 1016,5 20 -
23.06.2018 22:00:00 - - - - - - - -
23.06.2018 21:00:00 - - - - - - - -
23.06.2018 20:00:00 21,7 8,7 22 12 N 1015,9 24 0,0
23.06.2018 19:00:00 - - - - - - - -
23.06.2018 18:00:00 - - - - - - - -
23.06.2018 17:00:00 23,1 12,5 22 12 N 1016,3 24 -
23.06.2018 16:00:00 - - - - - - - -
23.06.2018 15:00:00 - - - - - - - -
23.06.2018 14:00:00 23,5 11,8 22 12 N 1016,9 24 0,0
23.06.2018 13:00:00 - - - - - - - -
23.06.2018 12:00:00 - - - - - - - -
23.06.2018 11:00:00 23,1 12,5 24 13 N 1017,4 24 -
23.06.2018 10:00:00 - - - - - - - -
23.06.2018 09:00:00 - - - - - - - -
23.06.2018 08:00:00 22,2 14,5 24 13 NNE 1016,4 22 -
23.06.2018 07:00:00 - - - - - - - -
23.06.2018 06:00:00 - - - - - - - -
23.06.2018 05:00:00 20,8 16,9 15 8 N 1014,2 12 -
23.06.2018 04:00:00 - - - - - - - -
23.06.2018 03:00:00 - - - - - - - -
23.06.2018 02:00:00 19,3 18,5 15 8 ONO 1013,7 12 -
23.06.2018 01:00:00 - - - - - - - -
23.06.2018 00:00:00 - - - - - - - -
22.06.2018 23:00:00 23,6 18,9 9 5 ONO 1012,4 12 -
22.06.2018 22:00:00 - - - - - - - -
22.06.2018 21:00:00 - - - - - - - -
22.06.2018 20:00:00 23,3 18,5 11 6 SO 1010,7 15 0,0
22.06.2018 19:00:00 - - - - - - - -
22.06.2018 18:00:00 - - - - - - - -
22.06.2018 17:00:00 27,1 17,5 15 8 ESE 1009,7 13 -
22.06.2018 16:00:00 - - - - - - - -
22.06.2018 15:00:00 - - - - - - - -
22.06.2018 14:00:00 28,9 16,0 18 10 E 1011,0 20 0,0
22.06.2018 13:00:00 - - - - - - - -
22.06.2018 12:00:00 - - - - - - - -
22.06.2018 11:00:00 29,4 15,1 8 4 NNE 1012,6 20 -
22.06.2018 10:00:00 - - - - - - - -
22.06.2018 09:00:00 - - - - - - - -
22.06.2018 08:00:00 25,1 15,1 5 3 SO 1012,8 20 0,0
22.06.2018 07:00:00 - - - - - - - -
22.06.2018 06:00:00 - - - - - - - -
22.06.2018 05:00:00 18,8 14,9 8 4 SO 1012,7 20 -
22.06.2018 04:00:00 - - - - - - - -
22.06.2018 03:00:00 - - - - - - - -
22.06.2018 02:00:00 20,9 14,2 11 6 SSO 1012,9 20 0,0
22.06.2018 01:00:00 - - - - - - - -
22.06.2018 00:00:00 - - - - - - - -
21.06.2018 23:00:00 22,7 17,3 11 6 SO 1014,3 20 -
21.06.2018 22:00:00 - - - - - - - -
21.06.2018 21:00:00 - - - - - - - -
21.06.2018 20:00:00 25,5 20,3 5 3 SE 1013,7 20 0,0
21.06.2018 19:00:00 - - - - - - - -
21.06.2018 18:00:00 - - - - - - - -
21.06.2018 17:00:00 27,9 18,5 16 9 E 1013,9 20 -
21.06.2018 16:00:00 - - - - - - - -
21.06.2018 15:00:00 - - - - - - - -
21.06.2018 14:00:00 27,2 17,0 18 10 ENE 1015,7 20 0,0
21.06.2018 13:00:00 - - - - - - - -
21.06.2018 12:00:00 - - - - - - - -
21.06.2018 11:00:00 26,7 17,5 11 6 NNE 1016,9 20 -
21.06.2018 10:00:00 - - - - - - - -
21.06.2018 09:00:00 - - - - - - - -
21.06.2018 08:00:00 24,1 19,5 8 4 NO 1017,4 20 0,0
21.06.2018 07:00:00 - - - - - - - -
21.06.2018 06:00:00 - - - - - - - -
21.06.2018 05:00:00 19,5 18,9 5 3 OSO 1017,2 20 -
21.06.2018 04:00:00 - - - - - - - -
21.06.2018 03:00:00 - - - - - - - -
21.06.2018 02:00:00 20,2 19,6 8 4 OSO 1017,8 20 0,0
21.06.2018 01:00:00 - - - - - - - -
21.06.2018 00:00:00 - - - - - - - -
20.06.2018 23:00:00 22,1 21,2 8 4 OSO 1018,4 20 -
20.06.2018 22:00:00 - - - - - - - -
20.06.2018 21:00:00 - - - - - - - -
20.06.2018 20:00:00 24,5 21,4 5 3 N 1017,4 20 0,0
20.06.2018 19:00:00 - - - - - - - -
20.06.2018 18:00:00 - - - - - - - -
20.06.2018 17:00:00 25,7 20,2 13 7 ENE 1017,6 20 -
20.06.2018 16:00:00 - - - - - - - -
20.06.2018 15:00:00 - - - - - - - -
20.06.2018 14:00:00 26,2 21,1 24 13 NNE 1017,8 20 0,0
20.06.2018 13:00:00 - - - - - - - -
20.06.2018 12:00:00 - - - - - - - -
20.06.2018 11:00:00 25,8 19,4 16 9 N 1018,4 20 -
20.06.2018 10:00:00 - - - - - - - -
20.06.2018 09:00:00 - - - - - - - -
20.06.2018 08:00:00 24,9 17,4 15 8 NO 1017,9 20 0,0
20.06.2018 07:00:00 - - - - - - - -
20.06.2018 06:00:00 - - - - - - - -
20.06.2018 05:00:00 20,7 17,4 11 6 O 1016,8 20 -
20.06.2018 04:00:00 - - - - - - - -
20.06.2018 03:00:00 - - - - - - - -
20.06.2018 02:00:00 21,1 16,8 11 6 O 1016,4 20 0,0
20.06.2018 01:00:00 - - - - - - - -
20.06.2018 00:00:00 - - - - - - - -
19.06.2018 23:00:00 24,0 18,4 15 8 N 1016,5 20 -
19.06.2018 22:00:00 - - - - - - - -
19.06.2018 21:00:00 - - - - - - - -
19.06.2018 20:00:00 24,5 19,8 18 10 N 1015,6 20 0,0
19.06.2018 19:00:00 - - - - - - - -
19.06.2018 18:00:00 - - - - - - - -
19.06.2018 17:00:00 26,2 18,8 21 11 N 1014,8 20 -
19.06.2018 16:00:00 - - - - - - - -
19.06.2018 15:00:00 - - - - - - - -
19.06.2018 14:00:00 26,7 17,5 24 13 N 1015,2 14 0,0
19.06.2018 13:00:00 - - - - - - - -
19.06.2018 12:00:00 - - - - - - - -
19.06.2018 11:00:00 25,6 19,8 24 13 N 1015,2 14 -
19.06.2018 10:00:00 - - - - - - - -
19.06.2018 09:00:00 - - - - - - - -
19.06.2018 08:00:00 24,3 19,9 16 9 NNO 1014,4 14 0,0
19.06.2018 07:00:00 - - - - - - - -
19.06.2018 06:00:00 - - - - - - - -
19.06.2018 05:00:00 21,2 18,0 13 7 NO 1012,9 14 -
19.06.2018 04:00:00 - - - - - - - -
19.06.2018 03:00:00 - - - - - - - -
19.06.2018 02:00:00 22,2 16,7 16 9 ONO 1012,4 15 0,0
19.06.2018 01:00:00 - - - - - - - -
19.06.2018 00:00:00 - - - - - - - -
18.06.2018 23:00:00 22,4 16,8 11 6 NO 1012,9 18 -
18.06.2018 22:00:00 - - - - - - - -

tt = Temperatura
td = dewpoint
ff = velocità del vento
dd = direzione del vento
ppp = reduced air pressure
vv = visibility
rr = precipitazioni

Stazioni seguenti

WeatherPro
AMSI
MeteoEarth